RH
91 91 91 91 83 78 79 78 80 79 76 72 72 67 63 61 60 60 64 88 89 86 81 74 75 80 83 88 89 87 85 82 83 84 84 85 85 84 83 82 80 78 74
92 91 91 92 93 91 92 84 82 82 76 81 76 76 70 65 62 64 65 68 88 88 86 81 78 78 80 84 89 88 83 83 84 83 82 85 85 84 84 80 78 76 74
89 87 90 92 90 92 89 88 86 78 82 82 80 81 79 79 76 68 63 66 66 87 88 86 83 80 81 82 84 87 84 85 86 82 77 84 84 84 83 80 77 74 71
83 88 87 87 86 87 89 89 91 92 94 95 90 92 89 85 83 82 79 73 59 55 81 86 85 83 84 83 82 83 82 84 85 84 84 84 83 82 80 79 75 74 69
80 88 89 89 86 92 92 93 95 96 95 94 94 91 91 90 85 72 75 75 72 68 62 79 87 87 85 84 84 82 78 79 81 81 83 83 82 81 80 74 75 70 74
83 88 87 89 92 90 88 90 89 94 93 92 80 81 90 87 82 80 77 69 72 72 69 64 76 81 89 86 84 84 80 77 76 78 80 80 81 82 78 76 75 73 75
85 88 91 89 88 88 77 77 77 72 76 74 77 75 84 79 78 79 73 72 69 67 75 71 68 64 72 88 86 84 82 78 77 78 80 80 80 81 80 76 76 74 75
84 82 76 70 66 68 69 70 71 78 74 71 78 75 73 63 62 72 70 70 78 70 70 72 75 71 68 76 88 88 84 81 78 78 81 82 81 82 80 77 76 75 76
63 63 59 62 63 63 66 70 68 68 75 71 68 74 78 72 59 48 45 73 78 80 77 70 79 82 87 91 92 93 91 90 81 79 85 82 83 82 80 78 76 76 76
56 54 55 56 58 63 65 67 56 77 76 77 72 57 66 64 64 62 59 59 57 52 60 77 82 76 75 84 84 91 97 97 96 86 84 87 85 83 83 78 76 75 75
55 45 51 56 61 68 69 70 73 75 77 80 76 74 72 72 72 69 67 59 58 58 60 60 73 81 80 83 90 88 93 98 97 93 93 89 89 85 81 80 76 74 73
60 54 49 59 63 67 69 73 74 75 80 80 79 77 76 78 74 74 75 70 68 62 58 58 64 74 76 86 86 89 93 100 99 92 84 89 92 90 87 83 82 81 77
57 58 60 66 68 68 69 73 77 80 80 82 84 81 76 76 74 77 78 80 81 73 72 68 67 77 87 88 94 88 88 98 99 97 95 88 82 92 93 90 83 76 73
53 60 61 64 67 69 73 77 81 83 81 84 85 82 79 78 76 77 82 89 83 74 70 68 66 77 90 90 87 92 93 98 99 99 96 92 92 89 97 92 90 85 78
49 64 68 70 72 76 77 78 82 82 82 84 84 85 80 76 79 78 80 80 90 95 81 69 68 71 81 82 87 87 87 94 99 100 98 96 93 92 95 95 92 87 83
61 68 70 74 73 73 75 77 79 78 78 76 73 78 80 77 76 77 81 79 83 91 96 78 73 71 71 72 81 90 90 96 98 100 100 98 97 98 96 96 94 92 92
66 67 70 74 73 74 75 77 78 78 80 77 79 74 78 78 79 79 80 81 83 84 92 82 77 75 78 84 84 85 92 95 97 99 100 99 99 100 100 97 95 92 93
72 73 73 74 73 74 77 81 83 80 76 79 79 80 80 73 82 82 85 84 86 83 86 90 84 85 83 84 92 91 88 97 96 95 99 99 99 100 96 97 95 96 96
75 72 74 77 77 82 82 82 81 79 79 80 80 81 81 81 84 84 82 86 86 80 85 90 89 85 89 94 93 89 86 90 96 92 99 99 99 98 98 97 96 96 96
74 76 74 78 82 82 77 75 76 84 83 82 84 84 82 83 84 86 87 89 88 93 92 94 93 92 93 96 95 96 99 96 98 99 97 98 99 98 96 95 95 95 94
76 75 78 82 82 79 71 84 84 86 86 86 85 82 80 85 87 92 96 96 97 97 97 97 97 98 100 100 100 100 99 100 100 100 100 99 98 98 97 95 95 95 94
80 84 86 84 86 76 86 89 89 90 84 90 91 83 88 91 96 94 94 96 97 97 97 97 97 98 100 99 100 99 100 100 100 100 100 100 98 98 97 96 94 94 93
92 92 91 92 94 90 91 90 89 88 92 94 95 95 93 92 93 86 92 94 91 93 96 97 97 97 98 98 99 100 98 97 100 100 92 99 99 100 98 96 94 93 92
100 100 100 100 100 100 93 93 85 95 98 98 99 98 98 95 90 97 97 97 97 95 95 96 97 97 97 97 96 93 98 100 99 99 92 98 100 99 100 97 94 94 94
100 100 100 100 100 100 98 91 89 94 95 100 100 100 98 96 96 97 98 98 97 99 97 98 97 97 97 97 97 100 100 98 99 100 100 93 99 98 99 99 100 99 98
100 100 100 100 100 100 99 89 88 93 96 96 94 93 90 90 90 95 98 98 98 98 100 100 100 99 99 99 94 91 95 97 97 98 100 96 98 96 98 100 99 99 99
Wind_Speed
4 4 4 4 3 4 5 5 5 4 3 1 2 4 5 5 6 4 2 10 10 11 13 15 16 17 18 16 16 16 15 16 17 17 16 16 16 14 13 13 13 13 12
5 5 5 4 4 3 4 3 4 4 3 3 4 5 5 5 6 6 4 4 13 13 14 16 18 19 21 20 18 18 17 17 19 18 19 17 17 16 16 15 14 13 15
6 6 4 4 5 5 6 4 5 2 1 1 4 3 4 3 4 5 6 5 5 17 16 18 20 21 22 23 22 21 20 20 20 21 22 20 19 19 18 18 16 16 16
8 5 4 4 3 3 1 1 2 2 2 2 4 3 4 5 6 7 7 6 7 7 15 21 22 23 23 24 25 25 25 22 22 23 22 21 21 20 20 21 20 20 19
6 5 4 3 3 2 2 3 0 1 2 2 4 4 4 4 6 7 9 9 10 9 8 11 21 21 23 24 25 27 27 25 25 25 23 22 22 22 22 21 20 20 20
5 4 3 3 3 2 3 4 4 5 3 4 4 6 6 6 8 9 10 10 9 10 8 10 6 10 20 24 25 27 29 28 28 27 26 24 23 23 22 22 23 22 21
5 4 2 3 4 4 3 3 0 2 3 3 3 4 5 9 11 9 10 10 12 11 7 8 8 9 8 23 27 29 31 32 29 28 27 25 25 24 23 24 23 24 23
5 6 4 3 5 4 5 3 3 2 3 3 3 3 5 5 6 7 8 7 7 6 7 7 7 8 9 6 12 27 31 32 33 29 29 27 26 25 25 26 25 23 23
6 7 6 5 5 3 1 2 2 3 3 3 4 3 5 4 8 6 11 5 7 5 6 9 7 7 7 6 6 11 24 26 34 30 29 28 28 27 27 28 27 25 24
6 7 5 4 3 2 2 2 2 2 2 4 4 4 6 7 10 12 4 6 8 11 8 7 8 10 10 8 12 11 14 19 21 29 31 30 30 29 29 28 28 28 29
5 5 6 4 3 1 2 3 3 4 3 3 4 4 4 5 7 10 16 10 8 7 7 8 9 8 8 8 7 9 12 14 17 20 23 28 30 33 30 30 29 27 25
3 5 5 4 2 1 2 3 3 4 4 4 4 5 6 6 8 9 13 13 14 10 9 9 8 8 9 8 7 12 12 11 17 23 27 28 26 30 31 32 30 27 27
2 4 4 4 2 3 4 3 4 4 5 5 5 5 6 7 8 9 11 13 14 11 11 9 9 8 6 6 6 12 15 13 14 17 20 24 29 24 28 32 31 29 27
4 5 4 3 4 4 4 4 3 4 6 5 7 7 7 8 8 8 9 10 15 15 13 15 8 9 6 5 8 14 11 11 14 14 17 20 23 23 24 27 27 27 27
3 5 4 4 4 5 6 5 3 5 5 5 7 6 7 8 8 8 8 8 8 14 19 8 10 8 9 8 7 8 10 9 14 15 17 20 22 24 25 26 28 26 24
4 4 3 4 3 2 3 4 3 4 6 6 7 8 8 8 9 8 8 9 8 10 18 9 9 8 11 9 8 8 8 8 8 13 15 19 21 16 22 34 29 27 21
4 3 3 3 4 5 5 5 6 7 7 9 8 10 11 10 8 8 8 9 9 10 15 13 11 11 15 11 8 8 8 6 5 12 14 16 15 15 17 24 29 29 28
5 5 5 4 4 5 6 6 6 7 9 9 10 11 11 9 12 11 9 12 11 12 13 20 13 10 15 13 6 10 10 6 5 6 13 14 18 15 28 27 30 26 26
5 5 2 4 5 5 5 5 5 6 7 8 10 11 13 12 12 11 11 11 11 11 12 12 13 10 8 6 7 8 10 13 5 9 9 13 14 20 27 31 32 33 31
4 3 5 5 4 3 5 5 5 6 8 9 10 11 12 12 14 14 13 14 13 12 13 12 12 10 8 5 5 8 8 9 6 3 6 8 10 23 30 34 32 34 33
4 6 4 4 2 3 3 5 6 7 9 11 11 12 11 14 20 18 12 14 15 12 11 11 12 10 9 7 6 3 8 1 3 1 2 2 8 11 16 25 30 33 32
8 4 3 2 3 3 7 6 6 7 10 10 10 12 11 15 13 20 22 24 22 17 17 12 12 12 12 8 7 6 2 2 3 3 6 6 3 10 12 12 29 32 32
5 2 2 4 3 4 7 8 9 6 8 9 10 9 10 8 13 13 19 24 23 25 26 19 17 15 12 8 5 4 5 3 3 1 12 6 6 7 5 15 35 34 32
2 2 2 0 3 2 7 8 11 7 6 8 8 10 11 11 11 15 16 15 16 16 15 13 17 15 10 6 9 6 4 7 7 5 5 6 3 7 7 10 32 30 30
3 2 2 0 1 3 6 6 8 6 7 6 7 7 9 10 16 21 14 15 15 13 15 17 14 14 10 11 8 8 7 11 5 3 5 9 4 10 8 8 12 27 26
3 3 2 3 5 3 4 5 7 4 7 7 7 6 10 14 17 18 13 12 12 12 12 7 6 5 1 11 19 11 9 10 9 5 1 6 12 8 5 4 8 10 12
Wind_Direction
182 188 193 203 201 196 203 203 212 234 218 281 292 248 228 257 286 292 292 197 206 212 210 212 217 219 219 212 201 208 200 198 199 197 200 194 195 196 200 195 192 191 191
182 189 192 194 212 217 250 254 216 233 216 195 241 249 248 240 234 259 249 235 206 215 219 219 220 222 223 220 215 210 213 203 203 206 210 208 197 200 196 197 191 188 198
188 190 194 211 206 205 217 233 246 246 219 256 251 304 265 297 308 272 247 242 226 217 219 223 222 223 223 221 216 211 213 207 203 208 219 206 204 201 195 195 187 201 206
183 187 208 203 179 165 210 144 55 37 348 332 294 290 298 296 282 263 271 274 257 253 217 220 222 223 223 225 221 214 216 215 212 208 211 209 206 204 197 193 191 196 197
184 175 178 188 122 169 129 93 135 205 240 258 276 275 272 274 276 275 256 259 260 260 260 225 229 228 229 231 227 224 222 219 213 218 217 209 206 203 199 198 199 197 193
165 156 165 174 202 168 174 166 202 196 216 228 249 249 235 242 255 256 265 270 252 249 262 273 262 243 242 237 232 230 228 224 222 221 218 217 212 205 200 202 195 197 197
176 148 156 204 191 201 169 150 200 330 313 317 295 285 251 237 242 243 245 247 257 262 259 247 249 264 243 233 241 236 232 231 227 220 219 217 211 201 201 201 202 195 191
148 182 154 128 83 54 35 28 18 330 296 298 276 296 281 294 267 234 239 247 251 258 261 251 250 255 269 262 232 246 238 235 234 227 215 209 209 200 200 200 200 197 194
113 89 82 63 56 63 334 4 17 312 280 284 300 256 319 260 325 301 293 266 250 249 245 250 234 248 248 261 247 232 243 246 236 228 224 209 204 200 199 199 197 195 193
120 111 94 96 80 39 357 316 344 13 336 294 309 279 276 289 296 298 243 283 279 266 253 244 224 232 246 255 255 242 244 239 252 245 213 211 200 198 194 202 197 196 187
123 119 109 90 76 65 7 1 319 300 291 286 283 300 300 308 309 298 299 294 279 275 258 251 239 221 230 246 252 259 231 232 239 242 261 212 202 198 195 199 201 197 192
155 139 125 114 87 57 355 360 347 323 302 292 293 291 288 286 288 282 288 294 294 299 294 282 269 240 229 233 228 254 253 223 227 229 228 235 213 210 195 199 197 194 190
160 105 81 54 28 15 358 343 320 301 295 281 289 296 290 286 292 295 301 302 298 303 299 298 304 296 252 241 240 242 246 224 220 224 235 244 232 232 195 193 193 193 190
115 81 71 61 28 9 341 334 338 338 337 333 319 309 298 288 284 286 281 298 295 290 286 288 289 294 285 244 239 246 255 223 218 222 229 235 230 219 197 196 188 189 188
133 85 56 36 23 31 18 347 327 314 321 320 309 312 311 306 308 308 299 285 280 295 286 303 287 296 308 329 275 256 250 236 219 216 225 237 238 226 195 191 184 178 182
83 62 56 60 23 350 308 325 323 315 313 310 305 306 302 300 295 295 294 291 293 293 289 295 287 289 281 286 304 269 254 243 239 217 218 225 237 231 215 182 168 157 163
86 67 47 41 13 5 12 1 349 331 319 310 302 302 308 306 300 298 289 284 277 272 273 288 285 290 282 286 300 299 264 236 230 221 224 226 221 210 180 157 164 163 155
85 67 42 28 10 13 12 352 330 313 310 313 314 313 307 310 306 299 293 288 285 276 271 277 275 272 268 271 291 311 293 258 246 226 221 227 226 199 204 178 157 144 136
85 69 63 32 33 15 342 310 292 323 321 314 310 308 304 303 294 286 284 281 279 282 281 283 283 278 273 251 262 265 262 265 238 234 211 218 218 214 160 149 141 132 128
94 88 50 48 34 338 306 308 340 336 320 311 303 296 296 293 294 294 287 283 281 277 276 272 272 274 269 258 242 259 271 238 226 203 222 218 179 178 160 144 139 132 132
97 53 47 38 338 305 324 4 334 323 314 307 304 295 295 291 302 300 298 295 290 280 272 270 268 266 259 255 238 246 264 179 4 32 82 145 163 147 137 131 127 129 130
62 59 51 332 347 316 11 348 336 322 314 305 302 310 306 308 301 304 297 292 280 276 269 262 261 253 250 239 233 228 181 115 70 347 88 30 113 141 130 126 133 128 125
76 42 43 29 324 330 341 337 334 318 308 304 304 306 307 303 306 307 300 290 289 276 256 256 253 241 240 225 210 172 193 131 109 113 106 55 17 72 94 136 129 127 127
124 203 135 328 324 320 329 330 333 311 305 298 312 309 296 308 311 307 308 307 304 292 279 260 239 236 226 211 195 176 123 95 80 40 67 89 42 70 93 123 118 121 122
170 185 124 168 238 274 315 341 340 328 322 309 305 293 304 315 308 322 322 315 314 316 315 301 225 199 202 190 139 114 128 123 109 39 46 104 104 95 79 89 105 117 123
189 131 155 211 238 244 305 342 353 330 326 321 308 316 325 322 330 341 334 319 326 336 345 8 48 144 221 154 153 150 148 138 126 85 284 96 130 114 75 43 109 115 119